Location: Chippewa Lake
(41.0698°N, 81.9010°W)
Time: 01:39:40
(UTC+00:00)

Cosmos 1328 Rocket - Pass Details

Date: 09 May 2021
Orbit: 601 x 627 km, 82.5° (Epoch: 24 June)

Event Time Altitude Azimuth Distance (km) Brightness Sun altitude
Exits shadow 02:27:51 38° 160° (SSE) 953 4.0 -18.7°
Maximum altitude 02:29:22 64° 95° (E) 698 3.5 -18.9°
Drops below altitude 10° 02:33:46 10° 14° (NNE) 2,004 6.6 -19.5°
Sets 02:36:01 0° 12° (NNE) 2,911 7.5 -19.8°
